This demonstration page uses our WeatherBlox Daily Observations layout. Learn more.

38.89511, -77.03637

Hourly Observations for June 26, 2018

Temp ( °F °C ) Dew Point ( °F °C ) Humidity (%) Winds ( mph kmh ) Pressure ( in mb ) Visibility ( mi km ) Precip ( " mm )
12:52 am 00:52 Mostly Cloudy 72 22.2 58 14.4 61 61 ENE 5 7 30.15 1021 10 16.09344 0 0
1:52 am 01:52 Mostly Cloudy 70 21.1 55 12.8 59 59 NNE 5 7 30.18 1022 10 16.09344 0 0
2:52 am 02:52 Mostly Cloudy 69 20.6 57 13.9 66 66 Calm 30.18 1022 10 16.09344 0 0
3:52 am 03:52 Mostly Cloudy 67 19.4 55 12.8 66 66 NE 6 9 30.15 1021 10 16.09344 0 0
4:52 am 04:52 Mostly Cloudy 66 18.9 52 11.1 61 61 NNE 5 7 30.18 1022 10 16.09344 0 0
5:52 am 05:52 Mostly Cloudy 66 18.9 51 10.6 59 59 NNE 7 11 30.18 1022 10 16.09344 0 0
6:52 am 06:52 Cloudy 66 18.9 51 10.6 59 59 NNE 8 13 30.21 1023 10 16.09344 0 0
7:52 am 07:52 Cloudy 68 20 52 11.1 57 57 NE 8 13 30.21 1023 10 16.09344 0 0
8:52 am 08:52 Cloudy 71 21.7 56 13.3 59 59 NE 10 17 30.21 1023 10 16.09344 0 0
9:52 am 09:52 Mostly Cloudy 76 24.4 61 16.1 60 60 NNE 6 9 30.21 1023 10 16.09344 0 0
10:52 am 10:52 Mostly Cloudy 79 26.1 61 16.1 54 54 Calm 30.21 1023 10 16.09344 0 0
11:52 am 11:52 Mostly Cloudy 81 27.2 58 14.4 45 45 N 6 9 30.21 1023 10 16.09344 0 0
12:52 pm 12:52 Mostly Cloudy 82 27.8 58 14.4 44 44 SSE 6 9 30.18 1022 10 16.09344 0 0
1:52 pm 13:52 Mostly Cloudy 83 28.3 59 15 44 44 S 6 9 30.18 1022 10 16.09344 0 0
2:52 pm 14:52 Mostly Cloudy 81 27.2 66 18.9 61 61 S 14 22 30.15 1021 10 16.09344 0 0
3:52 pm 15:52 Mostly Cloudy 80 26.7 63 17.2 56 56 SSE 12 19 30.15 1021 10 16.09344 0 0
4:52 pm 16:52 Mostly Cloudy 80 26.7 63 17.2 56 56 S 14 22 30.15 1021 10 16.09344 0 0
5:52 pm 17:52 Mostly Cloudy 79 26.1 64 17.8 60 60 S 12 19 30.15 1021 10 16.09344 0 0
6:52 pm 18:52 Mostly Cloudy 77 25 64 17.8 64 64 S 10 17 30.15 1021 10 16.09344 0 0
7:52 pm 19:52 Partly Cloudy 76 24.4 59 15 56 56 S 13 20 30.15 1021 10 16.09344 0 0
8:52 pm 20:52 Partly Cloudy 74 23.3 57 13.9 56 56 SSE 7 11 30.15 1021 10 16.09344 0 0
9:52 pm 21:52 Partly Cloudy 73 22.8 56 13.3 55 55 SSE 9 15 30.15 1021 10 16.09344 0 0
10:52 pm 22:52 Mostly Cloudy 73 22.8 55 12.8 53 53 SSE 10 17 30.15 1021 10 16.09344 0 0
11:52 pm 23:52 Mostly Cloudy 72 22.2 57 13.9 59 59 SSE 10 17 30.12 1020 10 16.09344 0 0

Powered by AerisWeather